Погода в Лажисе

Бразилия     27°49′10″S   50°19′15″W
темп.,
°C
ветер,
м/с
пор.,
м/с
влажн.,
%
обл.,
%
осадки,
мм/ч
давл.,
гПа
погр.,
м
27 февраля, сб
сб2700:00+13в13995 0.0 101872
03:00+13вюв11998 0.0 101746
06:00+12вюв119912 0.0 101723
09:00+20в277710 0.0 1019935
12:00+25всв365450 0.1 10191519
15:00+23в157645 2.5 10171339
18:00+19всв289433 2.6 1017449
21:00+14в179621 2.6 1019310
28 февраля, вс
вс2800:00+14в299639 0.0 1019513
03:00+14в179735 0.0 1017295
06:00+13вюв11991 0.0 101752
09:00+20в14684 0.0 1017703
12:00+27в14400 0.0 10161678
15:00+22ю367717 0.8 1013636
18:00+20ююв27955 1.9 1013279
21:00+16вюв12982 2.1 101463
1 марта, пн
пн100:00+15всв119913 0.0 101451
03:00+14в119921 0.0 101331
06:00+14вюв1110052 0.0 101330
09:00+19ссв129050 0.0 1014301
12:00+22ссз137882 1.2 1013596
15:00+24з237960 2.3 1011630
18:00+21ююв0194100 4.6 101123
21:00+17всв269876 4.6 1013186
2 марта, вт
вт200:00+16всв18998 0.0 1013275
03:00+16всв1310023 0.0 1012116
06:00+16св1210056 0.0 101379
09:00+20ссв129274 0.1 1014340
12:00+25сз236541 2.6 1013962
15:00+23юз149370 8.1 1012279
18:00+21св1195100 4.7 101235
21:00+18св2899100 5.3 1015303
3 марта, ср
ср300:00+17всв27100100 0.0 1015273
03:00+18св259998 0.0 1014328
06:00+15в119972 0.0 101523
09:00+19ссв129378 0.0 1017252
12:00+27з125670 0.0 1015741
15:00+24юз248437 1.4 1013500
18:00+21всв269565 2.9 1013207
21:00+18всв289982 3.1 1015314